SAS2704 ESGG-ESMS

Flight info

Callsign SAS2704
Flight time 0h 34m
Altitude 25000
Route TOPLA3M TOPLA L996 ERNOV ERNOV1T
Aircraft B736/M-SDE2E3FGHIRWXY/LB1

Departure

Time 2026-05-07 10:16
Airport Göteborg Landvetter Airport (ESGG)

Arrival

Time 2026-05-07 10:51
Airport Malmö Sturup Airport (ESMS)
Time Latitude Longitude Altitude Speed Heading
2026-05-07 09:42 57.66779 12.29317 507 ft 0 kts 117°
2026-05-07 10:06 57.66783 12.29300 508 ft 3 kts 118°
2026-05-07 10:06 57.66794 12.29268 508 ft 3 kts 126°
2026-05-07 10:06 57.66806 12.29239 508 ft 3 kts 139°
2026-05-07 10:07 57.66822 12.29220 508 ft 3 kts 171°
2026-05-07 10:07 57.66834 12.29220 508 ft 1 kts 205°
2026-05-07 10:07 57.66835 12.29220 508 ft 1 kts 206°
2026-05-07 10:10 57.66834 12.29220 508 ft 1 kts 206°
2026-05-07 10:10 57.66810 12.29198 508 ft 9 kts 206°
2026-05-07 10:10 57.66760 12.29121 507 ft 7 kts 284°
2026-05-07 10:10 57.66793 12.29026 507 ft 13 kts 296°
2026-05-07 10:11 57.66818 12.28825 507 ft 13 kts 223°
2026-05-07 10:11 57.66730 12.28730 506 ft 19 kts 206°
2026-05-07 10:11 57.66578 12.28595 504 ft 25 kts 205°
2026-05-07 10:11 57.66418 12.28450 503 ft 25 kts 206°
2026-05-07 10:12 57.66268 12.28313 501 ft 23 kts 206°
2026-05-07 10:12 57.66126 12.28185 499 ft 22 kts 206°
2026-05-07 10:12 57.65987 12.28060 498 ft 22 kts 206°
2026-05-07 10:12 57.65853 12.27937 491 ft 21 kts 206°
2026-05-07 10:13 57.65723 12.27819 495 ft 20 kts 206°
2026-05-07 10:13 57.65588 12.27694 491 ft 24 kts 206°
2026-05-07 10:13 57.65426 12.27544 488 ft 27 kts 206°
2026-05-07 10:13 57.65261 12.27389 491 ft 26 kts 206°
2026-05-07 10:14 57.65108 12.27248 485 ft 24 kts 207°
2026-05-07 10:14 57.65013 12.27112 488 ft 16 kts 263°
2026-05-07 10:14 57.65039 12.27036 485 ft 0 kts 334°
2026-05-07 10:15 57.65057 12.27021 486 ft 6 kts 339°
2026-05-07 10:15 57.65126 12.26981 485 ft 16 kts 348°
2026-05-07 10:16 57.65268 12.27051 492 ft 35 kts 26°
2026-05-07 10:16 57.65750 12.27490 494 ft 117 kts 26°
2026-05-07 10:16 57.66611 12.28290 803 ft 153 kts 25°
2026-05-07 10:16 57.67613 12.29223 1561 ft 169 kts 24°
2026-05-07 10:17 57.68688 12.30238 2454 ft 178 kts 25°
2026-05-07 10:17 57.69810 12.31394 3430 ft 191 kts 36°
2026-05-07 10:17 57.70520 12.33604 4093 ft 214 kts 82°
2026-05-07 10:17 57.70255 12.36381 4752 ft 223 kts 110°
2026-05-07 10:18 57.69655 12.39074 4993 ft 225 kts 112°
2026-05-07 10:18 57.69074 12.41808 5231 ft 229 kts 112°
2026-05-07 10:18 57.68082 12.44240 5871 ft 252 kts 143°
2026-05-07 10:18 57.66390 12.45411 6698 ft 264 kts 173°
2026-05-07 10:19 57.64576 12.45670 7831 ft 268 kts 179°
2026-05-07 10:19 57.62694 12.45807 8925 ft 273 kts 180°
2026-05-07 10:19 57.60780 12.45918 9981 ft 280 kts 180°
2026-05-07 10:19 57.58775 12.46044 10644 ft 301 kts 180°
2026-05-07 10:20 57.56582 12.46181 11066 ft 326 kts 180°
2026-05-07 10:20 57.54273 12.46344 11971 ft 334 kts 180°
2026-05-07 10:20 57.51938 12.46518 13056 ft 337 kts 180°
2026-05-07 10:20 57.49575 12.46703 14047 ft 343 kts 180°
2026-05-07 10:21 57.47168 12.46898 14976 ft 348 kts 180°
2026-05-07 10:21 57.44739 12.47095 15963 ft 352 kts 181°
2026-05-07 10:21 57.42277 12.47297 16942 ft 356 kts 181°
2026-05-07 10:21 57.39784 12.47505 17921 ft 361 kts 181°
2026-05-07 10:22 57.37259 12.47714 18815 ft 365 kts 181°
2026-05-07 10:22 57.34744 12.47924 19693 ft 368 kts 181°
2026-05-07 10:22 57.32172 12.48138 20556 ft 372 kts 181°
2026-05-07 10:22 57.29569 12.48354 21400 ft 377 kts 182°
2026-05-07 10:23 57.26936 12.48571 22254 ft 380 kts 182°
2026-05-07 10:23 57.24275 12.48790 23094 ft 385 kts 182°
2026-05-07 10:23 57.21589 12.49012 23953 ft 386 kts 182°
2026-05-07 10:23 57.18909 12.49234 24701 ft 387 kts 182°
2026-05-07 10:24 57.16241 12.49457 25016 ft 381 kts 182°
2026-05-07 10:24 57.13574 12.49676 25066 ft 385 kts 182°
2026-05-07 10:24 57.10910 12.49895 25076 ft 383 kts 182°
2026-05-07 10:24 57.08252 12.50113 25072 ft 382 kts 182°
2026-05-07 10:25 57.05600 12.50330 25074 ft 381 kts 182°
2026-05-07 10:25 57.02949 12.50545 25086 ft 381 kts 182°
2026-05-07 10:25 57.00304 12.50760 25091 ft 381 kts 182°
2026-05-07 10:25 56.97656 12.50974 25091 ft 381 kts 182°
2026-05-07 10:26 56.95037 12.51186 25091 ft 381 kts 182°
2026-05-07 10:26 56.92353 12.51402 25094 ft 381 kts 182°
2026-05-07 10:26 56.89699 12.51615 25084 ft 382 kts 182°
2026-05-07 10:26 56.87081 12.51826 25100 ft 382 kts 182°
2026-05-07 10:27 56.84425 12.52040 25092 ft 382 kts 182°
2026-05-07 10:27 56.81767 12.52254 25096 ft 382 kts 182°
2026-05-07 10:27 56.79111 12.52468 25092 ft 382 kts 182°
2026-05-07 10:27 56.76459 12.52680 25096 ft 382 kts 181°
2026-05-07 10:28 56.73804 12.52893 25098 ft 382 kts 181°
2026-05-07 10:28 56.71153 12.53105 25091 ft 381 kts 181°
2026-05-07 10:28 56.68498 12.53316 25103 ft 382 kts 181°
2026-05-07 10:28 56.65848 12.53527 25102 ft 382 kts 181°
2026-05-07 10:29 56.63192 12.53739 25104 ft 382 kts 181°
2026-05-07 10:29 56.60532 12.53950 25096 ft 382 kts 181°
2026-05-07 10:29 56.57963 12.54154 25102 ft 382 kts 181°
2026-05-07 10:30 56.52655 12.54575 25101 ft 382 kts 181°
2026-05-07 10:30 56.50034 12.54782 25099 ft 382 kts 181°
2026-05-07 10:30 56.47387 12.54991 25077 ft 382 kts 181°
2026-05-07 10:30 56.44734 12.55200 25089 ft 382 kts 181°
2026-05-07 10:31 56.42078 12.55409 25079 ft 382 kts 181°
2026-05-07 10:31 56.39418 12.55618 25077 ft 382 kts 181°
2026-05-07 10:31 56.36763 12.55826 24958 ft 383 kts 181°
2026-05-07 10:31 56.34109 12.56035 24539 ft 380 kts 181°
2026-05-07 10:32 56.31474 12.56242 24050 ft 376 kts 181°
2026-05-07 10:32 56.28880 12.56447 23531 ft 372 kts 181°
2026-05-07 10:32 56.26305 12.56648 22941 ft 368 kts 181°
2026-05-07 10:32 56.23754 12.56846 22413 ft 364 kts 181°
2026-05-07 10:33 56.21240 12.57042 21893 ft 360 kts 181°
2026-05-07 10:33 56.18759 12.57606 21364 ft 363 kts 166°
2026-05-07 10:33 56.16498 12.59631 20896 ft 366 kts 147°
2026-05-07 10:33 56.14700 12.62889 20404 ft 370 kts 129°
2026-05-07 10:34 56.13227 12.66664 19913 ft 368 kts 127°
2026-05-07 10:34 56.11821 12.70467 19416 ft 366 kts 126°
2026-05-07 10:34 56.10424 12.74272 18913 ft 364 kts 126°
2026-05-07 10:34 56.09030 12.78035 18445 ft 362 kts 126°
2026-05-07 10:35 56.07632 12.81768 17898 ft 360 kts 126°
2026-05-07 10:35 56.06256 12.85410 17381 ft 357 kts 126°
2026-05-07 10:35 56.04867 12.89066 16887 ft 353 kts 126°
2026-05-07 10:35 56.03486 12.92685 16400 ft 350 kts 126°
2026-05-07 10:36 56.02116 12.96269 15909 ft 347 kts 126°
2026-05-07 10:36 56.00756 12.99818 15443 ft 344 kts 126°
2026-05-07 10:36 55.99409 13.03331 14971 ft 342 kts 126°
2026-05-07 10:36 55.98069 13.06822 14506 ft 339 kts 126°
2026-05-07 10:37 55.96737 13.10287 14048 ft 337 kts 126°
2026-05-07 10:37 55.95412 13.13723 13540 ft 337 kts 126°
2026-05-07 10:37 55.94010 13.17091 13023 ft 339 kts 135°
2026-05-07 10:37 55.92090 13.19466 12528 ft 337 kts 158°
2026-05-07 10:38 55.89829 13.20465 12026 ft 333 kts 175°
2026-05-07 10:38 55.87609 13.20775 11544 ft 331 kts 178°
2026-05-07 10:38 55.85319 13.21009 11046 ft 329 kts 178°
2026-05-07 10:38 55.83033 13.21235 10564 ft 328 kts 177°
2026-05-07 10:39 55.80781 13.21469 10377 ft 318 kts 177°
2026-05-07 10:39 55.78586 13.21713 10227 ft 315 kts 176°
2026-05-07 10:39 55.76373 13.21967 10084 ft 323 kts 176°
2026-05-07 10:39 55.74108 13.22234 9657 ft 329 kts 176°
2026-05-07 10:40 55.71819 13.22507 9252 ft 329 kts 176°
2026-05-07 10:40 55.69551 13.22780 8839 ft 324 kts 176°
2026-05-07 10:40 55.67319 13.23049 8444 ft 318 kts 175°
2026-05-07 10:40 55.65157 13.23309 8077 ft 314 kts 175°
2026-05-07 10:41 55.62979 13.23571 7711 ft 312 kts 175°
2026-05-07 10:41 55.60816 13.23829 7358 ft 311 kts 174°
2026-05-07 10:41 55.58659 13.24084 7028 ft 309 kts 175°
2026-05-07 10:41 55.56514 13.24261 6796 ft 307 kts 176°
2026-05-07 10:42 55.54381 13.24397 6598 ft 307 kts 176°
2026-05-07 10:42 55.52241 13.24524 6358 ft 308 kts 176°
2026-05-07 10:42 55.50100 13.24658 6116 ft 308 kts 176°
2026-05-07 10:42 55.47955 13.24796 5876 ft 308 kts 176°
2026-05-07 10:43 55.45842 13.24932 5661 ft 307 kts 176°
2026-05-07 10:43 55.43722 13.25071 5376 ft 300 kts 175°
2026-05-07 10:43 55.41667 13.25203 5153 ft 292 kts 176°
2026-05-07 10:43 55.39669 13.25337 4979 ft 281 kts 175°
2026-05-07 10:44 55.37748 13.25463 4866 ft 271 kts 175°
2026-05-07 10:44 55.35898 13.25584 4704 ft 263 kts 175°
2026-05-07 10:44 55.34073 13.25853 4350 ft 262 kts 162°
2026-05-07 10:44 55.32540 13.27354 4157 ft 247 kts 133°
2026-05-07 10:45 55.31583 13.29746 3987 ft 235 kts 111°
2026-05-07 10:45 55.31097 13.32438 3820 ft 229 kts 101°
2026-05-07 10:45 55.31102 13.35182 3640 ft 225 kts 73°
2026-05-07 10:45 55.31826 13.37528 3512 ft 215 kts 50°
2026-05-07 10:46 55.32976 13.39084 3348 ft 205 kts 30°
2026-05-07 10:46 55.34237 13.40097 3180 ft 194 kts 26°
2026-05-07 10:46 55.35458 13.40940 3029 ft 185 kts 14°
2026-05-07 10:46 55.36692 13.41018 2899 ft 183 kts
2026-05-07 10:47 55.37912 13.40935 2780 ft 167 kts
2026-05-07 10:47 55.39016 13.40757 2643 ft 155 kts 358°
2026-05-07 10:47 55.40066 13.40554 2552 ft 151 kts 358°
2026-05-07 10:47 55.41072 13.40342 2562 ft 141 kts 357°
2026-05-07 10:48 55.42017 13.40106 2412 ft 132 kts
2026-05-07 10:48 55.42920 13.39935 2327 ft 134 kts 353°
2026-05-07 10:48 55.43842 13.39465 2121 ft 132 kts 358°
2026-05-07 10:48 55.44760 13.39362 2099 ft 137 kts
2026-05-07 10:49 55.45743 13.39285 1903 ft 144 kts
2026-05-07 10:49 55.46730 13.39081 1701 ft 141 kts 354°
2026-05-07 10:49 55.47654 13.38814 1460 ft 131 kts
2026-05-07 10:49 55.48582 13.38662 1255 ft 139 kts 359°
2026-05-07 10:50 55.49560 13.38488 1033 ft 138 kts 356°
2026-05-07 10:50 55.50470 13.38283 729 ft 127 kts 354°
2026-05-07 10:50 55.51350 13.38101 537 ft 127 kts 352°
2026-05-07 10:50 55.52215 13.37916 326 ft 122 kts 353°
2026-05-07 10:51 55.53019 13.37757 239 ft 108 kts 351°
2026-05-07 10:51 55.53617 13.37624 229 ft 65 kts 353°
2026-05-07 10:51 55.53935 13.37559 228 ft 36 kts 353°
2026-05-07 10:51 55.54160 13.37513 227 ft 15 kts 353°
2026-05-07 10:52 55.54223 13.37431 224 ft 10 kts 266°
2026-05-07 10:52 55.54215 13.37313 224 ft 10 kts 263°
2026-05-07 10:52 55.54187 13.37218 224 ft 9 kts 197°
2026-05-07 10:52 55.54108 13.37228 224 ft 15 kts 174°
2026-05-07 10:53 55.54017 13.37246 225 ft 12 kts 175°
2026-05-07 10:53 55.53965 13.37167 228 ft 12 kts 260°
2026-05-07 10:53 55.53958 13.37074 226 ft 11 kts 263°
2026-05-07 10:53 55.53948 13.36941 227 ft 10 kts 263°
2026-05-07 10:54 55.53959 13.36878 227 ft 2 kts 358°
2026-05-07 10:54 55.53991 13.36882 226 ft 6 kts 355°
2026-05-07 10:54 55.54015 13.36877 227 ft 0 kts 353°